Location: Melizzano
(41.1500°N, 14.5000°E)
Time: 03:25:50
(UTC+00:00)

Cosmos 2278 Rocket - Pass Details

Date: 11 May 2021
Orbit: 841 x 845 km, 71.0° (Epoch: 14 June)

Event Time Altitude Azimuth Distance (km) Brightness Sun altitude
Exits shadow 18:35:20 - 141° (SE) 3,004 4.5 -5.1°
Reaches altitude 10° 18:37:57 10° 120° (ESE) 2,455 3.9 -5.6°
Maximum altitude 18:40:11 12° 96° (E) 2,284 3.9 -5.9°
Drops below altitude 10° 18:42:26 10° 73° (ENE) 2,462 4.2 -6.3°
Sets 18:46:25 0° 45° (NE) 3,403 5.2 -6.9°
